Location: New Town
(33.2710°N, 90.7534°W)
Time: 13:26:26
(UTC+00:00)

Explorer 11/Cluster Stage 4 - Pass Details

Date: 14 May 2021
Orbit: 467 x 1257 km, 28.8° (Epoch: 14 June)

Event Time Altitude Azimuth Distance (km) Brightness Sun altitude
Rises 07:11:25 0° 272° (W) 4,074 - -35.3°
Reaches altitude 10° 07:14:52 10° 262° (W) 3,016 - -35.0°
Maximum altitude 07:20:57 28° 207° (SSW) 1,808 - -34.5°
Drops below altitude 10° 07:26:11 10° 151° (SSE) 2,557 - -34.0°
Sets 07:28:53 0° 139° (SE) 3,358 - -33.8°
